Snowfall_Accumulation
0.0 0.0 0.0 0.0 0.0 0.0 0.0 0.0 0.0 0.0 0.0 0.0 0.0 0.0 0.0 0.0 0.0 0.0 0.0 0.0 0.0 0.0 0.0 0.0 0.0 0.0 0.0
0.4 0.5 0.3 0.0 0.0 0.0 0.0 0.0 0.0 0.0 0.0 0.0 0.0 0.0 0.0 0.0 0.0 0.0 0.0 0.0 0.0 0.0 0.0 0.0 0.0 0.0 0.0
0.4 0.1 0.3 0.0 1.3 0.1 0.0 0.0 0.0 0.0 0.0 0.0 0.0 0.0 0.0 0.0 0.0 0.0 0.0 0.0 0.0 0.0 0.0 0.0 0.0 0.0 0.0
0.4 0.4 0.9 0.6 0.4 0.6 0.2 0.2 0.0 0.0 0.0 0.0 0.0 0.0 0.0 0.0 0.0 0.0 0.0 0.0 0.0 0.0 0.0 0.0 0.0 0.0 0.0
1.4 1.1 0.3 0.2 0.2 0.1 0.3 0.1 0.1 0.0 0.0 0.0 0.0 0.0 0.0 0.0 0.0 0.0 0.0 0.0 0.0 0.0 0.0 0.0 0.0 0.0 0.0
1.7 0.2 0.0 0.1 0.0 0.2 1.1 0.8 1.3 0.0 0.0 0.0 0.0 0.0 0.0 0.0 0.0 0.0 0.0 0.0 0.0 0.0 0.0 0.0 0.0 0.0 0.0
0.1 0.3 0.2 0.2 1.0 1.0 0.9 1.6 0.9 0.0 0.0 0.2 0.0 0.0 0.0 0.0 0.0 0.0 0.0 0.0 0.0 0.0 0.0 0.0 0.0 0.0 0.0
0.1 0.2 0.5 0.1 0.5 0.9 0.9 1.1 0.3 0.0 0.0 1.8 0.0 0.0 0.0 0.0 0.0 0.0 0.0 0.0 0.0 0.0 0.0 0.0 0.0 0.0 0.0
0.1 0.0 0.0 0.0 0.0 0.6 2.2 3.4 2.2 0.2 0.0 0.9 0.1 0.1 0.1 0.0 0.0 0.0 0.0 0.0 0.0 0.0 0.0 0.0 0.0 0.0 0.0
0.0 0.0 0.0 0.0 0.0 0.0 1.6 7.8 5.5 3.2 0.2 3.1 0.3 0.9 4.3 0.0 0.0 0.0 0.0 0.0 0.0 0.0 0.0 0.0 0.0 0.2 0.5
0.2 0.1 0.0 0.0 0.7 0.5 0.2 3.7 10.1 7.7 0.0 7.0 8.3 1.7 7.0 2.0 0.0 0.0 0.0 0.0 0.1 0.0 0.0 0.0 0.4 0.7 2.4
0.9 0.9 0.8 0.3 0.1 0.4 0.4 0.2 0.6 3.6 1.0 1.8 16.6 5.0 11.1 8.5 1.0 0.0 0.0 0.0 0.0 0.3 0.2 0.7 0.8 0.8 0.5
0.8 0.6 0.3 0.6 0.9 1.3 1.1 1.3 1.2 0.5 0.4 0.9 4.7 5.0 10.6 13.2 6.7 0.6 1.7 0.1 0.1 1.1 1.7 2.2 2.2 2.5 3.5
1.7 0.7 0.9 1.1 1.2 0.9 2.5 1.5 3.6 1.6 1.3 0.8 1.3 4.6 10.9 4.7 8.1 4.8 2.0 5.9 0.9 0.8 2.0 1.3 1.3 1.6 2.1
1.8 1.7 1.2 1.2 1.2 1.1 2.7 3.4 6.5 1.8 1.8 1.5 1.9 2.5 2.8 4.7 10.1 2.8 3.1 2.6 2.3 3.1 3.1 2.3 0.6 1.3 1.7
2.8 2.8 5.0 4.5 3.6 4.3 3.7 5.8 7.8 4.9 5.6 4.9 3.9 6.7 5.0 4.3 2.7 5.3 4.3 3.3 2.3 2.5 2.9 7.1 2.7 0.4 0.4
7.5 7.5 8.5 7.8 6.7 6.6 5.6 6.5 7.3 6.5 7.0 7.1 9.6 13.5 17.6 8.0 3.9 1.5 9.2 5.9 2.6 3.0 2.9 4.6 6.1 3.0 1.3